Theta_e
300 299 299 299 300 300 300 300 301 300 300 301 301 302 303 305 306 305 303 304 303 304 306 306 306 307 306 305 305 306 307 306 307 308 308 312 315 314 314 313 313 315 315 317 316 309 305 305 307 312 312 310 311 310 310 308 307 310 308 308 317 322 317 314 320 323 319 317 316 313 312 313 315 316 315 316 320 323 328 332 333 336 337 333 334 338 334
300 299 299 299 300 300 300 300 301 301 300 299 300 303 304 304 305 307 305 304 304 305 307 307 307 308 307 307 307 308 308 308 308 308 309 314 316 314 315 314 313 315 314 314 315 312 309 307 306 310 312 310 311 310 308 308 308 309 310 313 313 314 317 319 318 317 315 314 316 312 309 314 320 323 318 314 320 325 323 325 332 336 335 333 334 336 331
299 299 299 299 300 300 300 300 301 301 300 300 299 301 303 304 306 307 306 304 305 306 307 307 307 308 307 307 308 308 309 309 310 308 309 312 313 313 315 314 313 313 313 314 315 314 315 310 305 308 312 312 311 309 307 308 307 310 317 317 310 313 324 323 318 322 322 319 324 326 320 317 318 320 318 314 318 320 318 320 324 326 328 329 332 333 328
299 299 299 299 300 300 300 300 301 301 301 301 300 300 303 306 307 306 307 307 307 307 307 306 307 307 307 308 308 310 310 309 309 310 312 312 312 313 314 313 314 314 315 318 318 316 317 315 310 308 309 311 310 308 309 307 306 316 325 319 315 323 328 325 325 327 323 327 336 333 324 316 314 314 315 317 320 322 325 325 322 324 331 332 330 329 328
299 299 299 299 300 300 300 301 301 301 301 301 301 302 304 307 308 307 307 307 307 307 306 306 306 307 308 309 308 308 309 310 310 312 316 316 314 314 314 313 315 318 319 321 321 320 321 321 318 313 311 316 315 309 308 308 309 321 326 318 320 326 320 322 332 328 321 327 331 325 323 323 325 324 319 319 322 322 322 323 324 329 332 330 326 325 328
299 299 299 299 300 300 300 301 302 302 301 301 302 304 305 307 309 309 308 308 308 308 307 307 306 306 307 308 309 310 310 311 312 313 316 318 316 316 318 318 317 318 319 320 321 324 327 325 324 323 321 326 327 313 306 308 312 320 322 318 324 329 321 323 334 333 327 328 326 328 334 330 330 335 334 332 329 320 317 326 331 331 330 329 326 325 327
299 299 299 299 300 300 301 302 302 303 302 301 301 304 307 307 309 309 309 309 309 308 309 309 308 308 308 309 311 313 312 312 313 313 315 319 319 317 319 322 319 318 323 326 324 326 328 326 326 326 323 326 329 319 310 312 315 316 318 319 324 332 328 325 332 335 330 328 326 328 333 330 326 329 331 336 336 326 328 335 331 330 333 331 325 324 326
299 299 299 300 300 300 301 302 303 303 302 301 302 305 307 308 309 309 309 310 310 310 311 311 311 310 310 311 313 313 314 314 313 312 313 318 321 318 317 320 321 321 326 329 325 323 324 324 324 325 326 328 326 322 319 318 316 315 317 317 319 326 327 325 333 337 330 328 326 324 330 333 330 327 325 330 334 331 333 334 330 333 333 324 322 326 325
299 299 299 299 300 300 301 302 303 303 302 302 303 305 306 307 309 309 310 310 310 311 311 311 311 311 312 313 313 314 315 314 312 312 313 314 319 319 317 319 321 324 327 325 322 322 322 323 322 322 328 328 321 321 323 321 318 317 318 320 322 329 329 324 332 340 333 328 326 324 327 330 332 332 328 327 330 330 329 328 330 333 329 322 323 327 324
299 299 299 300 300 300 301 302 303 303 303 303 304 305 307 307 308 309 310 310 309 310 310 309 310 312 313 313 313 313 314 312 311 314 316 314 316 316 315 317 320 324 326 321 319 322 323 323 320 318 322 323 319 320 321 321 324 326 327 330 330 330 329 326 330 337 333 329 329 327 327 328 330 329 323 321 324 325 326 327 326 325 323 322 325 325 322
299 299 299 299 300 300 301 302 303 304 304 304 304 304 305 305 307 308 309 309 310 310 310 309 310 312 312 312 312 312 313 311 311 314 317 317 317 315 314 318 320 322 325 321 317 320 321 320 319 317 319 319 318 318 318 318 322 326 332 338 330 325 329 329 331 335 332 328 329 327 326 328 328 321 316 318 321 324 326 326 324 321 321 322 323 321 319
299 299 299 299 299 300 301 301 302 303 304 304 304 304 304 304 306 308 309 310 311 311 310 311 311 312 312 311 312 312 313 313 312 312 314 315 316 314 314 318 319 319 322 322 320 321 320 317 320 321 321 319 319 320 320 320 319 318 324 330 327 327 332 329 327 332 333 329 328 326 326 329 324 317 315 315 318 320 321 320 320 321 321 321 322 320 318
299 299 299 299 299 300 300 301 302 302 303 304 304 304 304 304 305 307 309 311 312 311 311 312 312 313 313 314 314 314 314 314 313 312 312 313 314 314 315 319 321 321 321 322 323 323 319 320 325 326 324 327 329 325 321 321 321 319 320 323 324 328 333 329 325 326 327 330 330 326 324 322 318 316 316 315 317 320 322 323 321 319 319 320 320 319 317
298 299 299 299 299 299 300 301 301 302 302 303 304 304 304 304 304 307 309 310 312 311 311 313 314 314 314 314 316 316 316 316 315 314 315 315 316 317 318 319 322 321 319 321 325 325 321 325 331 328 328 333 333 327 325 324 324 323 322 319 320 324 328 329 327 322 321 327 327 322 321 323 321 319 318 319 321 322 327 332 325 319 319 320 318 317 317
298 298 298 298 298 299 300 300 301 301 302 302 303 304 304 303 304 306 308 309 311 311 312 315 315 314 314 314 314 316 319 320 319 318 318 318 318 320 321 321 320 318 318 321 326 327 326 329 332 331 331 331 326 324 327 327 325 325 323 317 317 322 327 329 329 322 318 323 326 324 327 331 328 323 321 322 323 323 327 332 327 320 319 318 316 317 316
297 298 298 298 298 298 299 300 300 301 301 301 302 303 304 304 304 304 306 308 310 313 316 316 314 313 314 315 314 315 318 319 320 322 323 323 320 318 318 320 317 316 321 327 328 329 329 327 328 329 327 325 322 322 324 327 327 327 326 322 320 321 323 327 328 323 319 326 332 329 329 331 328 324 322 321 321 321 324 329 329 321 317 317 316 315 314
297 297 298 298 297 298 298 299 300 301 301 301 302 302 303 304 304 304 306 308 310 313 312 312 312 314 315 316 316 317 317 316 316 320 323 322 321 318 317 318 318 317 321 327 328 330 329 325 324 325 322 320 322 322 322 327 329 327 329 333 331 328 328 329 329 326 324 329 333 328 325 325 322 321 322 321 319 318 322 330 330 320 316 317 315 314 313
297 297 297 297 297 297 298 299 299 300 301 301 302 302 303 304 304 305 306 309 311 312 311 310 313 316 317 317 317 317 317 316 315 317 319 319 319 318 316 317 318 316 317 324 328 330 328 324 323 326 323 319 320 322 323 326 327 324 326 329 330 329 328 327 327 327 326 330 333 328 325 325 321 319 321 320 318 318 324 333 329 318 315 316 313 312 312
296 297 297 297 297 298 298 298 299 300 301 301 301 302 303 304 304 305 307 310 311 312 312 311 312 314 315 316 318 317 316 316 315 317 321 319 317 317 315 314 316 316 320 327 329 326 324 321 320 325 325 320 319 323 323 323 324 323 322 324 325 325 324 322 323 323 323 328 331 327 324 323 320 319 318 316 319 326 329 326 320 314 314 315 312 312 311
296 296 296 296 297 297 298 298 298 299 300 301 301 302 304 305 305 306 308 310 311 313 313 311 311 313 313 314 318 320 319 319 318 320 322 320 319 321 321 318 317 316 321 327 323 319 322 322 318 321 325 322 321 323 322 321 322 322 323 324 325 326 327 326 322 320 321 326 328 327 325 321 317 317 317 317 324 330 323 315 314 314 314 314 312 312 311
295 296 296 296 296 297 297 297 298 298 300 301 301 301 303 305 306 306 307 309 310 314 317 314 311 312 313 313 315 317 317 319 320 320 322 321 318 319 319 319 319 316 320 326 321 316 322 325 320 318 322 322 320 320 321 322 321 318 320 322 322 323 328 328 323 321 325 330 329 325 323 319 315 317 320 321 323 321 315 313 314 315 312 311 311 311 309
295 295 296 296 296 296 296 296 297 298 299 300 300 301 302 303 304 306 308 308 308 311 315 313 311 311 312 311 311 312 313 315 316 317 320 322 319 318 317 320 322 318 317 323 321 315 318 323 321 320 322 323 322 320 320 323 323 319 317 319 320 319 321 323 323 320 320 324 324 320 316 314 314 315 318 319 316 313 312 313 314 313 311 310 309 308 307
295 295 296 296 296 295 295 296 296 297 298 299 300 300 301 302 304 307 308 308 309 310 310 309 310 312 310 309 309 309 309 312 313 314 315 317 319 320 319 318 319 317 317 321 322 319 321 321 320 323 324 322 323 323 320 319 322 322 318 317 317 316 315 319 323 319 315 316 316 314 313 314 313 312 312 313 312 310 311 313 312 311 311 309 307 306 306
295 295 296 296 296 295 295 295 296 297 298 299 300 300 301 302 305 308 309 310 311 313 313 312 313 311 309 310 308 307 308 310 311 312 314 313 316 322 322 318 317 318 321 322 317 317 320 317 315 321 323 318 320 324 322 320 321 322 320 318 316 315 316 319 321 319 319 319 316 313 313 312 310 310 310 310 311 310 310 311 310 310 309 307 306 306 305
295 295 296 296 295 295 295 295 296 297 297 298 300 300 301 304 306 307 309 310 310 312 315 318 318 311 307 309 308 306 309 309 308 311 312 310 313 319 320 316 312 313 318 319 314 316 320 315 314 323 322 315 316 321 320 320 320 320 321 321 317 315 317 319 319 318 319 318 313 311 311 310 309 311 311 310 310 310 309 309 308 307 307 306 305 305 305
295 295 296 296 296 295 295 295 296 297 297 299 299 299 302 304 305 305 307 308 309 310 312 317 320 312 307 309 309 307 308 309 308 309 309 308 311 314 314 313 312 311 316 320 319 323 326 319 319 326 322 315 317 320 318 317 318 319 321 320 316 316 317 317 317 315 315 314 311 311 313 312 310 309 309 308 308 308 307 307 306 306 306 305 305 305 305
295 295 296 296 296 295 295 295 296 297 298 299 299 300 304 305 304 305 305 306 309 310 310 315 322 316 308 308 309 306 307 308 308 308 308 308 309 308 309 316 319 320 323 323 319 323 329 325 320 321 317 315 318 318 315 314 316 319 319 314 313 316 317 315 316 318 318 317 314 313 316 317 312 309 308 308 307 306 307 306 306 306 305 305 305 305 305
295 295 295 296 296 295 295 295 296 298 299 299 299 303 306 305 303 304 304 303 305 307 308 312 316 312 307 308 308 307 307 308 308 307 308 309 307 306 309 318 323 324 324 319 316 323 330 325 317 315 315 317 319 316 314 316 318 319 317 312 314 319 318 315 319 324 322 318 313 312 316 316 311 308 308 307 306 306 306 306 306 306 305 305 305 305 305
295 295 295 295 295 294 295 295 297 299 300 299 299 305 308 306 303 304 305 304 304 308 312 315 315 312 308 307 307 307 306 307 308 308 307 306 306 307 311 317 320 318 317 317 320 323 320 315 315 314 312 314 317 316 317 320 321 319 316 313 314 317 315 313 317 320 317 314 312 312 314 313 309 308 308 307 306 306 306 306 306 305 305 304 305 305 305
295 295 294 294 294 294 295 296 298 301 301 299 299 307 312 308 304 306 308 304 302 307 312 315 316 315 311 307 307 308 307 307 307 307 307 307 308 309 310 312 316 318 319 321 322 319 314 313 317 316 312 313 318 318 317 318 319 318 317 315 313 313 313 312 314 316 314 312 311 311 311 310 308 307 307 307 306 306 306 306 305 304 304 303 304 304 304
295 294 294 294 295 295 295 297 299 301 302 299 300 307 312 309 305 306 306 302 302 307 311 313 316 318 313 310 310 308 305 305 307 307 306 306 308 308 307 307 312 318 320 320 318 315 313 313 314 315 314 316 320 319 316 318 319 317 316 316 314 312 313 314 312 311 311 310 309 309 308 307 307 307 307 308 306 305 306 305 304 303 303 303 303 304 304
293 293 294 295 295 295 296 298 300 302 302 300 300 303 305 304 302 302 303 302 304 308 311 313 315 315 312 312 313 308 304 306 310 311 308 305 306 309 309 310 314 316 316 316 317 314 312 312 314 315 313 313 318 320 318 320 322 319 315 315 313 311 312 313 311 309 308 308 309 309 308 307 307 308 308 308 306 304 304 304 303 303 303 303 303 303 303
292 293 294 295 295 295 296 298 300 301 300 299 299 299 300 302 303 303 303 303 305 307 309 311 311 309 307 309 309 307 305 308 312 314 312 308 309 312 313 314 317 315 312 315 315 310 310 315 317 315 312 312 316 320 319 318 318 315 312 311 310 308 310 310 309 308 308 308 310 311 309 308 308 307 306 305 304 303 303 303 303 303 303 303 303 302 300
292 294 295 295 295 296 298 300 300 299 299 298 298 299 302 304 305 305 304 303 305 308 309 308 307 308 310 312 313 312 308 306 309 313 313 309 308 310 310 314 318 315 310 311 312 309 310 315 318 317 314 312 314 317 318 315 313 311 310 309 308 308 309 309 308 309 310 310 311 310 308 307 306 305 305 305 304 303 303 303 303 303 303 303 302 300 298
293 294 295 295 296 298 301 302 300 298 299 299 300 300 302 304 305 305 305 304 305 309 312 309 306 309 312 315 318 316 309 305 307 309 309 308 307 307 310 315 318 313 308 309 313 313 310 310 314 316 314 311 312 317 319 315 311 310 310 309 307 308 310 309 308 309 309 310 310 308 306 307 307 306 306 306 305 304 304 303 303 304 303 302 301 299 298
293 294 294 296 300 302 302 302 301 300 301 302 302 302 303 305 305 304 305 304 304 309 314 311 308 309 310 312 315 313 306 306 309 308 309 309 306 309 319 321 314 311 313 315 317 314 308 308 313 314 311 311 315 318 316 313 312 311 309 308 308 309 310 310 309 308 307 307 308 307 306 307 306 306 306 306 305 305 305 304 304 304 303 301 299 298 298
293 295 297 301 304 305 303 302 302 303 302 302 303 304 304 305 305 305 306 306 304 308 312 310 310 312 310 310 316 315 307 308 312 310 311 311 305 307 318 318 309 312 320 321 315 310 310 313 317 315 312 313 315 313 310 310 310 310 309 309 309 309 309 308 307 307 308 307 307 307 307 307 306 306 307 307 306 306 305 305 304 302 301 300 299 298 297
294 296 299 303 306 307 306 305 304 304 302 302 304 304 304 305 305 306 307 306 306 310 310 307 310 312 308 307 314 312 305 309 314 310 307 308 306 305 310 310 308 313 317 312 309 310 313 316 316 314 314 315 312 308 308 308 308 308 309 309 309 309 308 307 307 307 308 308 307 307 307 307 306 307 306 307 307 306 304 302 301 299 298 298 297 297 296
296 297 298 301 306 308 307 303 302 302 302 303 304 305 305 305 306 307 307 306 308 311 309 308 313 317 312 310 313 310 305 310 316 312 308 307 305 304 306 307 308 312 310 308 312 316 314 312 312 313 316 317 312 308 309 309 308 308 308 308 308 308 307 308 308 308 308 308 307 307 307 307 307 307 306 306 306 305 302 299 298 298 298 297 296 296 296
295 295 296 299 303 303 302 301 301 302 305 306 305 305 305 306 306 306 307 306 306 307 308 311 316 314 309 309 312 310 306 308 313 314 314 310 305 305 307 306 307 307 306 309 316 319 315 312 311 313 316 317 314 310 310 309 309 309 309 309 309 308 307 308 307 305 306 307 306 305 305 305 305 306 306 305 305 305 302 299 298 298 298 297 296 296 296
293 293 295 297 297 296 298 301 302 304 306 308 307 306 306 306 307 307 306 306 307 309 310 310 309 308 306 309 312 310 307 307 310 315 316 310 305 306 306 305 306 306 306 310 315 318 316 313 311 313 318 319 315 312 310 309 309 309 308 309 309 307 307 308 306 303 305 308 307 305 303 303 302 302 302 302 301 301 300 298 298 298 297 297 296 297 297
293 294 295 295 294 295 298 302 304 305 305 306 306 306 305 305 306 306 305 305 309 311 309 306 306 307 309 309 311 311 307 304 308 314 312 305 304 307 308 307 306 305 306 310 313 312 311 311 313 318 322 318 312 311 311 310 310 310 309 309 309 307 307 310 308 305 304 306 305 303 302 302 301 301 301 300 299 298 297 298 298 297 297 297 297 297 297
296 297 295 295 297 299 301 303 305 305 305 305 306 306 305 306 306 306 306 310 311 309 306 307 307 308 308 308 309 309 305 302 307 314 311 304 305 309 309 306 305 304 305 309 309 307 308 313 319 324 322 314 309 310 310 309 309 311 310 307 306 304 304 306 307 305 303 303 303 302 302 302 302 302 302 301 299 297 297 298 298 298 297 297 297 297 297
298 298 297 298 302 303 301 302 304 304 304 305 306 305 305 307 308 307 308 313 312 306 305 307 307 306 311 313 310 306 306 306 308 311 309 305 306 308 306 305 307 307 306 307 307 306 307 312 318 319 315 309 308 308 308 308 309 311 310 306 304 302 302 304 305 305 305 303 302 302 302 302 301 301 301 301 299 298 298 298 298 298 298 297 297 297 297
300 301 301 302 304 303 299 299 303 304 304 304 306 308 309 311 313 311 310 311 309 304 304 307 304 304 311 314 309 306 310 311 307 306 308 307 306 305 304 306 310 310 307 306 305 304 305 312 318 317 312 308 308 308 307 307 308 309 309 307 305 305 306 306 307 308 306 302 301 301 301 301 300 299 300 300 299 299 299 298 298 298 298 297 297 297 297
299 301 302 302 303 302 299 299 302 305 304 304 307 311 311 309 310 310 308 306 305 304 304 305 303 303 309 312 307 306 311 312 307 306 310 308 304 304 304 304 305 307 306 305 305 307 311 319 324 319 311 308 307 307 306 307 307 307 308 308 307 307 306 307 308 307 304 301 301 301 301 300 300 299 299 299 299 299 299 299 299 298 298 298 297 297 297
299 299 299 302 304 302 300 300 303 304 302 300 303 306 305 302 304 305 304 302 303 303 302 303 304 305 307 309 307 307 311 312 307 304 305 305 304 306 307 306 306 307 305 303 308 317 322 325 325 319 311 307 307 307 307 306 307 307 308 308 307 306 306 306 307 306 302 300 300 301 300 300 300 299 299 299 299 299 299 300 299 299 299 298 298 298 298
300 299 300 304 306 304 302 303 304 303 301 299 299 300 300 300 301 303 301 300 302 302 300 302 307 307 306 308 310 310 310 310 305 303 304 305 304 305 307 307 308 308 307 307 315 324 325 322 322 319 311 306 307 307 307 306 307 307 308 308 307 305 305 306 306 304 301 300 300 300 300 300 300 299 299 299 298 298 299 300 299 299 299 299 299 299 299
298 298 299 302 304 304 303 303 304 304 303 300 299 299 300 299 300 301 300 300 302 301 300 303 309 309 306 308 310 308 306 306 304 303 304 306 306 306 307 307 306 307 311 316 320 323 321 317 317 314 309 306 307 307 306 306 307 307 307 307 305 303 303 304 303 302 301 300 300 300 300 301 300 300 299 298 298 298 299 299 299 299 299 299 299 299 299
297 298 299 300 302 304 305 303 304 305 304 301 300 301 301 299 299 300 300 300 301 302 302 305 308 308 306 307 308 307 307 309 307 304 304 308 307 305 305 306 308 313 319 321 320 320 319 318 316 314 310 307 306 307 306 306 307 307 305 304 303 301 301 302 302 301 301 301 301 301 301 300 300 300 300 300 300 300 299 299 299 299 299 299 300 299 299
297 298 300 300 301 302 302 302 302 302 302 300 301 302 300 299 299 300 299 299 302 305 307 308 310 309 307 307 308 307 306 307 306 304 306 310 308 305 306 312 316 319 320 317 315 315 315 314 315 317 314 307 305 306 307 306 306 305 303 302 302 302 302 302 302 301 301 301 301 301 301 300 300 301 302 302 301 300 298 298 299 299 299 299 300 300 300
298 298 300 300 300 300 300 299 299 300 300 301 302 300 299 299 300 299 298 299 302 305 305 306 308 310 309 310 310 308 306 306 306 305 307 309 309 309 314 319 320 317 315 313 313 313 311 309 310 314 313 309 306 306 306 306 306 305 302 301 302 302 301 301 301 301 301 301 301 300 300 301 301 301 301 300 299 298 297 297 298 299 299 299 300 300 301
Wind_Speed
20 21 20 18 18 17 16 15 13 14 12 8 8 5 1 2 0 1 3 9 11 2 1 2 1 2 2 3 5 6 7 7 8 8 6 1 0 2 2 3 3 3 3 2 2 4 4 5 6 3 3 6 7 8 10 10 9 8 5 4 3 3 2 1 3 4 3 6 4 2 5 5 4 2 3 6 5 4 6 5 4 3 3 3 3 1 4
21 21 21 19 18 17 17 15 13 13 12 9 8 3 1 1 2 1 4 8 9 1 1 1 1 2 3 5 6 8 7 8 8 7 4 1 0 2 3 2 1 2 3 3 3 4 3 5 7 5 3 5 9 10 11 10 8 6 5 5 4 4 2 2 0 1 2 3 2 1 2 2 3 3 3 5 5 7 5 3 4 2 3 4 4 3 3
22 22 22 21 19 18 17 15 13 12 11 10 5 1 0 1 1 1 2 4 5 2 1 1 2 4 5 6 7 7 5 6 8 7 4 3 3 2 3 3 2 3 3 3 3 4 3 4 7 6 3 3 5 8 10 9 7 5 6 7 6 5 3 3 4 4 3 5 5 4 4 2 1 2 4 4 6 9 6 3 4 1 3 4 4 3 2
22 22 22 22 21 19 16 14 12 10 9 8 4 1 1 1 1 1 2 2 1 1 1 1 3 4 5 5 5 5 3 4 6 5 3 4 4 2 4 4 2 3 2 1 2 1 1 3 4 5 5 3 3 7 11 9 7 7 9 10 7 3 3 4 6 6 6 7 7 5 5 4 2 3 6 5 6 8 7 5 4 4 3 3 3 5 7
22 23 23 23 21 19 16 13 12 10 8 7 4 2 1 1 1 1 1 1 1 2 2 3 4 4 3 3 3 5 5 5 4 1 1 4 3 2 3 3 1 2 2 1 2 2 4 5 3 3 4 3 2 4 10 10 10 11 10 8 6 4 3 4 5 4 4 4 6 4 4 5 4 5 7 5 4 6 9 6 5 6 5 2 5 10 13
23 23 23 23 22 19 16 13 11 10 8 6 3 1 1 0 0 2 2 1 2 2 3 4 6 6 4 2 3 4 6 5 3 2 3 4 2 0 2 3 3 3 2 1 1 2 3 4 1 2 2 1 3 1 5 8 11 12 8 5 5 5 3 4 5 2 3 4 5 1 7 5 3 4 3 3 2 5 9 7 6 8 6 5 10 16 15
23 23 23 24 23 19 15 13 12 11 9 6 2 1 1 1 1 2 1 1 2 3 3 3 4 7 6 3 3 3 5 5 3 2 3 5 4 0 2 5 6 7 4 3 2 2 3 1 2 2 1 1 3 2 2 3 6 10 8 4 3 4 2 4 5 4 5 7 7 1 8 7 4 5 4 1 3 4 5 3 3 6 5 6 14 15 10
24 23 24 24 23 19 14 12 12 11 9 4 1 2 1 1 1 1 1 2 3 3 3 1 1 3 3 3 4 3 3 4 4 3 2 3 4 2 1 5 7 7 4 4 3 1 4 3 2 2 2 2 2 2 3 2 4 7 6 4 2 3 2 2 4 5 5 7 7 3 8 10 6 5 6 6 5 5 5 4 4 7 6 8 14 11 3
24 23 24 24 23 19 15 12 12 11 7 3 1 3 3 3 4 3 1 2 2 1 2 0 0 1 1 3 3 3 3 2 5 5 4 5 4 2 3 6 6 5 5 6 3 2 5 5 2 4 5 5 3 1 2 3 6 7 4 3 2 4 3 0 4 5 3 4 5 4 6 10 8 4 6 7 3 3 3 3 3 5 10 12 12 8 5
25 24 24 24 23 21 16 12 12 11 7 4 2 2 3 4 4 3 1 2 2 1 2 1 1 1 1 2 2 3 5 2 3 4 4 4 6 4 3 5 4 3 4 5 1 3 5 5 1 3 4 10 5 1 2 4 5 6 4 2 1 4 6 2 3 4 2 4 2 4 3 6 2 2 2 2 2 2 3 1 2 4 12 12 7 7 9
26 25 24 24 23 21 18 13 10 10 9 5 3 4 5 4 4 2 0 1 1 1 1 2 1 1 2 3 3 3 5 4 1 2 3 4 4 4 5 4 2 1 1 2 2 1 4 5 2 0 5 11 7 4 9 11 7 3 4 4 2 4 7 4 2 4 3 5 4 4 2 3 4 5 3 4 3 4 5 2 2 3 3 3 3 8 14
27 26 25 25 24 21 19 16 12 9 9 8 6 7 6 4 4 3 1 1 2 1 1 2 3 3 5 5 3 4 7 7 4 5 4 5 6 6 5 1 1 1 3 2 1 3 3 1 1 3 4 7 9 11 14 14 11 6 3 5 5 5 6 3 1 4 3 2 4 3 3 4 4 5 3 4 5 7 8 5 4 4 3 0 7 13 18
28 27 26 26 25 22 20 18 14 10 9 9 9 10 9 5 3 2 2 2 3 1 2 5 6 5 6 6 5 6 7 8 6 5 6 6 6 6 5 3 4 4 1 3 5 6 4 3 4 4 6 6 8 10 11 11 11 11 8 5 6 7 5 3 2 2 2 2 3 2 3 4 4 5 3 3 6 7 7 4 3 3 3 3 10 12 14
27 27 27 27 26 24 22 20 17 13 10 10 9 11 11 8 4 2 2 2 3 3 2 4 5 4 5 4 4 4 5 5 4 4 5 5 5 7 6 5 6 4 1 4 5 5 3 2 3 3 5 5 5 5 5 6 8 10 10 7 3 7 6 3 3 2 2 3 2 0 2 4 2 2 2 4 5 6 6 3 2 3 2 3 10 13 13
27 27 27 27 27 26 24 22 20 17 14 12 10 9 10 10 7 3 2 1 3 3 2 2 3 5 6 5 3 3 4 4 2 2 3 3 4 6 6 5 5 2 2 3 3 3 3 3 3 2 2 2 2 2 3 3 5 6 6 5 4 5 4 5 4 1 2 4 2 1 1 3 5 6 7 5 4 5 6 5 2 4 2 5 10 15 15
26 27 27 27 27 26 26 25 23 20 17 16 13 9 9 8 10 7 2 1 2 3 3 4 2 3 4 4 3 2 1 2 2 2 4 4 3 4 5 5 4 1 3 3 3 3 3 3 2 2 1 1 2 1 2 2 3 6 4 5 8 8 5 4 6 3 2 4 3 3 3 4 6 7 6 5 5 5 5 4 3 5 5 7 11 14 15
26 27 27 27 27 27 27 26 24 23 20 19 16 13 10 6 11 11 4 1 2 3 6 5 2 2 2 3 4 2 1 0 1 1 1 3 3 4 5 5 4 2 4 3 3 3 4 3 3 3 0 2 2 2 0 1 1 4 5 6 7 7 5 4 5 3 3 4 2 2 3 4 5 6 5 5 5 5 6 1 5 7 9 10 13 16 15
26 26 26 26 26 27 27 26 25 25 22 22 21 15 9 4 9 11 4 2 2 3 5 5 2 1 2 2 1 3 1 0 1 0 2 3 2 3 4 3 4 3 2 3 2 2 3 2 2 3 1 2 1 3 2 2 3 2 2 2 3 4 4 3 4 3 3 4 2 1 3 4 4 5 7 6 4 4 4 5 6 9 12 12 14 15 15
26 26 26 25 26 27 27 26 26 26 24 24 23 16 8 3 9 13 6 1 3 3 5 5 4 4 3 2 1 2 1 0 1 1 1 2 2 3 3 2 2 2 2 3 3 2 3 1 1 3 2 1 1 2 2 2 2 2 1 2 2 2 2 2 3 3 2 3 2 0 3 4 4 5 4 4 3 3 6 5 4 11 14 11 13 14 13
26 27 26 25 26 26 25 24 25 26 25 24 23 18 10 4 6 14 12 3 1 4 7 4 4 4 3 1 2 1 1 2 1 3 2 2 2 2 4 2 2 2 2 3 2 1 2 2 1 2 3 1 1 2 1 1 1 2 3 2 2 3 2 1 2 3 2 2 2 1 3 4 9 10 3 2 3 5 5 1 4 10 12 12 13 12 11
27 26 25 25 25 24 24 24 24 26 25 22 22 18 10 6 4 8 15 10 2 2 4 3 3 6 9 8 9 7 2 1 2 3 3 3 3 2 3 3 3 0 0 2 2 0 1 3 1 1 2 1 0 1 2 0 1 1 2 2 1 1 2 2 2 2 3 2 2 3 4 5 7 8 4 4 4 4 5 6 6 6 8 10 11 10 10
27 26 25 25 25 24 23 23 24 26 25 24 22 17 11 9 10 5 10 13 8 6 10 15 18 18 15 11 12 13 9 2 2 3 4 2 3 1 3 2 2 2 2 2 2 0 1 2 2 2 2 2 1 1 2 3 1 2 1 2 1 2 3 4 3 2 3 4 5 4 3 3 2 0 1 3 4 3 5 8 9 8 7 8 9 10 11
27 26 26 25 24 24 22 23 25 25 25 25 22 18 18 17 12 4 5 9 8 9 14 17 16 13 10 9 6 6 7 6 6 8 7 3 3 3 2 1 2 2 1 2 3 2 2 3 2 2 2 2 3 3 2 1 2 2 0 1 1 2 1 3 2 1 1 1 2 1 2 2 2 3 2 1 3 3 5 7 8 8 7 8 9 10 12
26 27 27 25 24 24 22 23 25 24 24 26 23 20 21 18 9 1 5 4 2 3 5 6 4 2 6 10 9 8 5 1 5 9 9 6 2 2 2 2 1 1 2 2 2 3 3 2 2 2 2 2 2 3 2 1 2 2 2 0 3 2 1 3 3 2 1 0 2 2 3 2 1 3 3 4 4 3 4 6 7 7 7 9 10 11 13
27 27 27 26 25 24 23 24 25 24 24 24 23 23 21 13 5 1 3 3 1 1 1 4 3 3 10 12 8 8 10 8 5 3 1 2 3 3 3 3 1 1 2 2 2 4 3 2 1 2 2 2 2 2 2 2 2 3 3 1 3 2 3 3 2 3 2 2 3 1 3 3 2 2 2 3 5 5 5 6 7 8 9 10 10 12 12
28 28 27 26 25 24 24 25 25 24 24 22 23 25 20 9 4 4 4 4 0 2 1 3 6 8 14 13 8 8 11 10 10 10 9 6 2 2 3 2 0 2 2 3 4 4 3 3 2 2 2 2 2 2 3 2 2 2 2 3 4 1 3 2 2 3 2 2 2 2 3 4 4 3 2 3 5 7 8 8 10 12 12 11 10 11 12
28 28 27 27 25 24 25 25 24 24 24 20 21 23 14 2 2 5 4 3 3 2 3 3 5 9 13 9 8 13 12 10 11 11 11 11 9 7 5 3 2 3 4 4 3 2 3 3 2 2 2 1 2 3 2 2 3 4 1 1 1 2 2 3 4 3 1 4 4 5 3 1 1 2 3 4 5 8 10 10 10 12 13 13 13 12 12
28 28 27 26 25 24 25 24 22 23 23 20 20 19 7 7 6 8 10 11 7 0 3 3 5 7 9 7 10 14 12 9 11 11 10 12 13 12 10 5 3 3 3 3 2 2 3 3 1 1 1 1 3 2 1 2 3 2 0 1 1 3 5 5 5 4 5 5 6 6 4 3 2 4 5 5 6 9 11 10 11 12 12 13 14 14 13
28 28 27 27 26 25 25 23 21 21 22 21 19 12 3 9 6 2 2 12 13 3 2 2 4 4 4 6 11 13 9 8 8 9 10 13 13 11 8 5 4 3 3 3 3 3 2 1 2 1 1 2 3 1 1 3 2 1 3 3 3 3 5 6 6 3 2 4 6 5 3 4 5 6 6 6 6 9 9 9 10 10 10 12 13 13 14
28 29 29 28 28 26 24 21 19 19 22 21 16 8 0 4 7 9 8 13 17 7 1 0 2 3 4 5 7 7 7 6 5 6 8 9 7 6 5 4 3 3 3 3 3 3 1 1 1 2 3 2 4 2 1 3 1 4 4 3 3 2 3 3 3 3 2 3 5 4 5 6 6 5 6 6 6 8 9 8 9 10 11 13 12 11 14
29 30 30 29 28 25 22 19 17 18 20 17 8 3 2 1 2 7 12 19 18 6 2 1 2 3 4 3 2 4 6 5 2 3 5 4 3 3 4 4 2 2 4 3 1 2 2 1 2 3 4 3 5 3 2 3 1 4 3 3 2 2 4 3 2 3 5 7 8 7 7 7 7 6 5 5 6 9 9 7 10 13 13 14 15 14 16
31 31 31 29 27 24 20 17 16 17 18 14 8 7 8 8 10 15 18 18 12 1 2 1 3 2 3 4 5 6 5 2 2 3 3 3 3 3 4 4 2 2 3 4 2 2 1 1 1 2 3 3 4 3 2 4 3 5 4 3 2 2 4 4 4 5 7 10 11 9 6 4 5 6 6 6 7 10 10 8 12 17 17 15 16 17 17
32 32 31 29 26 22 18 16 16 17 17 15 14 14 13 11 10 11 12 11 6 2 3 1 1 2 2 3 6 6 3 1 3 3 2 2 2 2 3 4 3 3 3 3 2 0 1 2 2 2 3 2 3 3 2 1 4 5 4 3 1 1 4 5 6 7 7 6 7 8 8 7 5 6 8 8 8 11 12 12 14 16 15 13 12 13 15
33 32 30 27 22 18 17 16 15 13 11 10 11 10 5 3 6 10 12 10 5 1 1 2 1 2 3 2 4 4 2 2 1 1 1 3 2 2 2 4 3 3 2 2 2 1 1 2 2 1 2 3 3 3 0 4 5 3 2 2 1 3 5 5 5 5 4 3 4 5 8 8 7 7 9 8 8 11 14 14 13 13 11 10 9 10 13
33 31 27 23 18 16 15 13 10 8 6 5 7 7 5 5 11 15 14 7 1 1 2 1 1 1 3 3 4 4 2 3 1 1 0 3 3 2 1 2 3 2 1 1 2 2 2 1 2 2 2 2 2 1 3 5 4 2 2 3 4 5 6 5 3 2 3 5 6 7 9 10 10 9 8 8 8 10 11 11 11 11 10 8 8 10 12
32 28 24 18 13 10 9 6 3 2 3 5 9 11 10 12 14 14 9 5 5 3 1 1 1 1 1 1 3 4 2 2 2 2 1 2 2 2 3 3 2 1 1 3 3 2 2 1 2 2 2 1 1 3 5 6 6 5 5 6 6 5 5 6 6 5 5 7 9 9 9 11 11 8 8 8 8 9 10 10 10 11 10 9 8 9 9
28 24 18 11 6 4 3 1 2 1 7 13 16 15 12 9 8 7 3 3 6 4 2 2 1 3 3 2 3 3 1 1 2 3 3 1 1 1 2 3 1 1 2 4 2 1 2 2 3 2 1 2 3 5 5 6 8 7 6 6 5 4 5 6 8 9 8 8 9 9 8 9 9 7 7 7 7 8 10 10 9 10 10 9 8 9 11
23 17 10 5 3 2 1 0 3 10 16 17 13 9 5 2 1 1 1 1 2 1 1 2 3 3 2 2 3 2 1 1 1 2 1 1 0 1 2 2 1 1 2 2 3 1 3 3 3 2 2 4 4 4 3 4 5 5 5 6 6 6 7 7 8 11 10 7 6 8 8 8 8 7 7 7 7 7 8 8 8 10 11 10 10 13 16
18 12 7 5 3 0 2 6 13 17 14 8 3 1 1 1 2 1 2 0 0 1 0 1 3 3 4 3 5 4 0 2 3 2 1 1 1 1 0 0 0 2 3 2 4 1 3 2 2 2 3 5 4 3 1 3 4 3 4 5 5 6 7 7 8 10 11 9 8 9 8 9 8 7 6 6 6 7 7 8 10 13 14 14 15 17 17
19 11 5 3 3 8 13 17 16 11 5 2 2 1 1 1 0 1 1 1 0 1 2 2 3 3 4 4 3 4 1 2 1 2 2 1 1 0 2 1 1 2 2 2 3 1 3 0 2 2 2 4 4 3 2 4 4 4 4 5 5 6 7 6 7 8 9 9 9 8 8 8 8 7 7 7 7 6 7 8 12 15 16 16 18 19 19
15 9 4 6 12 19 23 19 11 3 1 2 1 1 1 1 2 1 1 1 1 2 2 1 1 2 1 3 3 3 2 1 2 2 2 1 1 1 2 1 1 2 1 4 3 2 4 1 1 2 4 5 4 4 4 4 4 4 4 5 6 6 6 6 6 8 9 9 7 6 9 11 10 9 10 10 8 7 8 9 12 16 19 19 20 22 23
16 14 14 17 19 18 14 9 4 1 1 1 1 1 1 1 2 1 0 1 2 2 2 1 2 3 3 2 4 3 2 0 1 2 3 0 1 1 2 1 1 2 1 4 1 4 3 1 2 4 6 5 4 5 6 5 5 5 5 6 6 6 7 6 6 7 10 10 8 6 9 12 12 12 14 15 13 11 13 14 15 17 21 23 24 23 24
16 10 9 10 9 5 3 2 1 0 1 1 1 1 2 2 1 1 1 2 1 1 2 2 1 2 2 0 1 1 0 0 1 2 2 0 1 2 3 2 1 1 2 1 3 3 0 2 3 5 5 4 5 6 6 6 5 5 5 6 7 9 10 9 8 8 10 13 12 12 12 13 13 15 18 19 17 14 15 18 21 22 23 24 24 24 26
8 1 2 1 2 1 1 1 1 1 1 0 1 1 1 2 2 0 1 2 2 1 2 2 2 2 3 2 0 0 1 0 1 2 1 0 1 2 2 1 2 2 1 2 2 0 2 3 4 5 4 3 5 6 6 6 6 5 5 5 7 9 10 9 9 8 8 9 12 14 14 14 14 15 18 20 19 17 16 19 22 25 25 24 24 25 28
4 1 1 2 2 1 0 0 1 0 1 2 2 2 3 2 2 2 2 2 2 2 3 2 2 1 3 3 1 0 0 1 1 1 0 1 2 1 1 2 1 1 1 1 1 1 2 4 4 4 4 6 7 7 7 6 6 6 6 5 6 7 8 8 8 7 6 7 10 12 12 13 14 14 15 17 21 22 21 21 22 24 25 25 23 24 27
1 0 2 2 1 1 0 0 1 1 1 1 2 2 1 2 3 4 3 1 1 4 5 4 1 1 3 3 1 0 1 2 1 1 1 3 2 1 2 1 1 2 2 1 2 2 4 5 5 5 6 7 7 7 7 6 6 6 7 7 7 7 7 8 8 7 8 10 12 12 12 13 14 15 15 16 19 23 25 26 26 26 25 24 24 26 28
1 1 1 1 1 1 0 1 2 2 1 0 2 3 3 3 3 3 2 2 3 4 5 4 1 2 3 2 1 1 1 2 2 1 0 2 1 1 1 2 0 1 1 1 3 5 5 5 4 5 6 6 6 7 7 6 6 7 7 7 7 7 8 8 8 8 10 12 12 12 12 13 15 15 15 15 17 20 24 28 29 29 28 27 27 29 30
0 0 1 1 1 1 2 2 2 2 2 2 2 4 3 2 2 4 4 4 3 4 6 4 2 1 2 1 2 1 1 1 1 1 0 2 1 1 2 2 1 2 2 4 5 5 4 5 5 5 5 6 7 8 7 7 8 9 8 8 8 8 8 8 8 10 12 13 11 11 12 14 16 16 16 16 16 18 23 28 30 29 29 29 30 30 30
1 0 0 1 0 2 3 2 2 3 3 3 3 3 3 4 4 5 5 4 4 5 5 3 2 1 2 1 2 1 1 0 1 1 1 2 1 1 1 1 1 3 3 4 4 4 5 5 4 3 5 6 7 8 8 7 8 8 8 8 9 9 9 8 9 12 14 14 13 13 14 15 16 16 16 16 16 18 22 27 29 29 28 30 31 31 30
1 0 1 1 1 2 3 2 3 3 5 5 4 4 4 5 5 5 4 4 6 6 3 1 2 1 1 0 2 1 1 2 2 2 1 1 2 2 1 1 3 4 4 4 4 5 5 4 3 4 6 7 7 8 8 8 8 8 9 9 11 12 12 13 13 14 15 16 16 16 16 16 17 17 17 16 18 19 22 25 28 29 29 30 32 32 31
1 1 1 1 2 2 1 1 1 2 4 4 4 4 3 4 4 5 4 4 5 5 4 1 0 1 2 2 1 1 1 0 2 3 1 2 2 3 2 3 5 6 5 5 5 5 5 4 4 5 5 6 7 9 9 9 9 9 9 11 12 13 15 16 16 16 16 17 18 18 17 17 19 21 21 21 21 20 18 21 26 29 30 31 32 32 32
1 1 2 2 1 3 2 1 1 3 3 3 3 3 2 3 5 6 5 5 4 3 3 2 1 2 2 1 2 1 1 1 1 1 2 2 2 3 5 5 6 5 5 5 5 5 5 5 5 6 6 7 9 9 9 8 8 8 10 12 13 13 13 15 16 16 17 17 18 18 19 19 21 22 22 22 19 16 13 17 24 28 29 30 32 32 32
Wind_Direction
347 349 351 351 351 352 351 350 347 345 350 352 342 332 360 59 188 2 64 161 175 135 12 234 215 227 261 295 280 272 266 266 280 291 295 318 345 296 261 216 202 213 216 192 173 170 163 180 192 193 199 207 219 207 180 165 159 153 165 189 183 170 127 145 268 299 273 269 312 74 153 134 125 195 165 145 160 147 147 171 168 140 154 143 103 185 265
347 348 349 349 349 351 351 351 349 344 348 352 343 337 74 360 250 13 69 157 179 203 318 275 327 299 299 304 290 281 271 265 269 275 287 314 277 275 259 219 215 245 224 203 203 192 169 179 192 190 182 220 225 200 180 177 167 162 185 179 171 205 182 96 138 341 333 269 315 48 182 187 180 186 157 151 132 109 117 123 92 119 198 157 141 206 255
348 347 348 349 348 350 351 350 349 342 341 347 347 309 218 336 235 335 28 142 171 229 294 317 317 308 307 299 284 275 264 254 256 260 274 263 215 221 261 243 238 256 237 230 232 204 170 170 184 189 191 232 230 192 184 188 177 179 181 156 152 187 179 123 152 172 174 193 207 205 195 212 250 140 137 142 127 125 135 120 100 183 214 137 139 190 206
348 347 349 349 348 350 349 348 349 342 334 339 342 256 230 38 81 329 350 63 152 251 231 281 286 290 298 294 276 269 281 279 266 258 248 243 221 209 255 251 242 259 240 234 269 240 76 99 153 192 206 225 231 186 184 190 184 180 170 152 136 133 160 150 154 176 191 198 216 215 164 156 178 156 150 154 151 138 120 109 151 185 169 152 184 161 144
349 348 349 348 349 350 347 344 346 344 332 322 313 277 236 94 107 186 169 13 268 250 253 239 239 258 288 307 301 298 307 306 308 336 239 251 243 218 247 255 256 298 316 31 360 358 28 54 99 203 222 241 289 189 180 188 190 180 173 162 130 106 193 182 141 178 230 227 231 216 132 143 163 156 156 153 146 137 132 154 191 154 134 207 202 155 150
350 350 349 349 350 349 345 343 344 344 336 317 297 268 226 156 233 217 197 223 216 229 249 223 223 244 250 272 291 294 303 311 322 311 294 298 297 264 313 306 302 318 337 92 35 20 35 36 38 246 242 306 349 351 182 195 192 178 172 177 142 118 186 183 119 75 329 326 284 180 100 100 97 96 114 129 155 169 162 181 191 150 152 203 178 166 169
351 350 350 351 352 350 347 347 345 344 337 318 290 280 256 195 258 269 230 226 224 244 262 231 225 238 231 241 264 262 286 298 293 284 317 327 313 335 346 315 325 345 15 102 91 65 82 32 290 260 203 86 63 93 206 234 200 178 166 176 156 114 165 186 126 78 11 350 320 360 109 104 63 48 31 55 151 160 142 149 149 124 121 154 158 164 175
350 350 352 353 354 353 351 351 350 347 342 329 258 256 259 180 239 279 213 237 242 251 278 309 252 245 229 240 255 245 257 287 315 305 280 298 308 347 352 313 328 344 9 73 86 152 156 169 253 246 169 79 56 158 203 212 169 170 169 177 170 111 157 201 108 71 356 346 348 26 114 113 90 54 15 19 80 93 89 114 115 89 82 119 137 139 139
350 351 353 354 357 356 354 354 357 358 352 331 268 257 263 260 272 285 272 274 273 244 271 352 69 280 235 222 254 271 258 301 346 314 237 211 250 285 309 321 336 347 19 54 62 227 181 163 247 244 157 102 55 247 223 160 151 157 166 161 121 104 116 32 75 77 315 325 16 23 95 99 88 53 12 4 44 108 128 166 170 136 127 124 126 139 168
350 351 353 355 358 359 358 353 356 2 355 322 292 296 308 306 298 296 267 291 313 311 297 288 234 249 231 220 244 266 266 305 6 317 285 237 227 241 294 312 322 348 24 43 24 239 192 160 215 269 123 93 75 340 49 78 126 144 137 98 84 128 133 140 96 105 250 276 352 347 46 89 75 325 343 307 277 152 137 7 349 134 138 139 154 181 168
351 351 353 355 358 0 1 353 347 356 355 333 291 296 324 331 312 300 299 291 286 280 303 290 232 245 266 253 247 253 271 297 260 210 284 293 270 301 326 312 300 312 252 242 275 202 172 160 139 220 99 93 83 45 47 49 52 93 129 102 81 120 125 140 128 121 202 265 340 13 62 152 234 271 241 217 219 143 129 106 53 93 139 165 151 144 148
352 351 352 355 357 0 2 358 347 343 346 333 297 278 297 327 321 298 295 303 280 235 275 274 239 245 266 263 261 263 262 267 245 204 229 287 301 313 309 271 150 253 238 241 8 76 104 94 30 357 15 67 68 42 35 35 29 23 71 112 122 117 109 121 86 109 170 274 20 78 187 227 267 305 294 199 161 127 111 79 43 27 341 181 128 140 153
352 352 352 353 356 359 1 2 355 342 337 327 294 268 270 291 309 290 283 307 300 258 282 288 266 256 266 261 254 260 258 262 260 227 227 259 277 291 287 200 187 233 227 74 62 83 92 359 358 354 337 2 45 36 18 16 24 22 18 50 124 132 124 117 72 82 137 65 50 155 228 282 325 343 334 144 133 124 109 68 1 347 331 163 142 143 151
351 351 351 353 356 357 359 2 359 352 345 329 299 274 268 261 246 275 315 318 294 269 271 298 299 304 307 286 263 268 280 289 283 230 220 228 234 255 262 221 218 247 155 91 61 68 90 38 22 9 337 357 36 22 345 356 23 29 18 8 81 122 127 117 75 54 128 110 80 335 329 318 317 311 253 182 162 169 148 133 253 267 283 174 146 141 143
349 349 350 352 355 357 358 360 360 359 355 342 319 285 266 245 222 238 317 318 300 297 251 253 309 333 330 321 314 316 321 331 337 276 264 252 227 244 252 237 243 277 82 97 72 65 82 84 69 30 352 27 63 334 328 343 351 12 28 23 44 83 120 140 121 89 102 106 93 48 30 280 236 217 229 219 187 185 144 113 252 256 222 170 152 146 146
348 348 349 350 352 355 357 358 359 1 359 351 338 309 279 245 217 220 261 289 287 299 266 256 287 317 317 324 323 324 349 333 329 336 323 318 306 282 278 274 268 202 101 76 67 73 69 79 112 132 169 187 174 231 355 13 329 328 360 40 49 54 61 95 104 109 124 115 129 169 183 248 233 204 217 222 184 165 111 80 266 231 175 157 153 151 151
346 346 347 349 350 352 354 355 357 359 359 356 344 318 294 250 210 208 215 261 247 273 280 278 297 311 307 334 322 299 148 281 344 50 328 300 305 305 303 315 334 51 99 77 50 61 79 97 109 105 172 249 158 143 147 86 57 313 332 16 39 41 31 59 98 135 157 128 139 203 210 253 237 186 183 203 179 130 100 106 245 202 166 160 159 157 155
345 345 346 347 348 349 352 353 354 356 356 355 347 326 304 263 205 198 200 280 249 268 278 258 244 284 212 166 240 262 213 79 360 259 291 302 296 287 298 330 350 4 74 88 83 73 80 101 121 115 143 282 114 140 188 152 148 230 316 29 36 30 26 65 114 133 142 132 141 256 251 251 232 176 175 187 156 108 152 221 223 176 164 163 160 157 157
343 344 344 346 346 347 349 351 354 355 355 356 353 342 330 293 204 197 198 263 226 248 281 262 245 268 250 170 202 271 271 41 127 154 336 337 282 279 307 338 336 334 43 72 87 101 88 86 155 121 114 297 294 143 168 164 165 183 129 97 108 96 61 74 115 121 126 131 122 323 275 246 175 139 167 187 145 170 219 233 178 158 158 155 153 155 158
342 341 342 345 345 345 348 351 355 355 354 356 354 344 338 335 217 206 207 217 264 272 277 253 208 236 273 262 189 180 10 354 142 133 121 250 267 16 28 350 321 355 25 60 62 64 116 134 193 103 117 212 234 123 129 305 257 180 153 149 178 159 131 127 156 145 113 68 86 120 259 223 150 131 132 242 184 197 214 155 128 153 153 147 150 154 153
340 339 341 344 343 344 348 352 356 356 354 356 353 343 333 347 335 234 223 227 269 310 283 290 293 283 281 262 234 219 184 88 215 191 171 231 265 57 87 226 236 360 358 133 116 152 152 144 167 128 127 157 79 127 149 131 300 241 153 139 183 163 135 168 212 180 128 122 177 194 233 230 167 143 163 204 184 184 170 139 134 147 149 149 152 150 144
338 338 339 341 342 345 350 353 356 357 355 354 353 344 323 326 349 328 234 228 232 249 269 289 299 298 295 285 259 241 225 206 282 246 174 187 290 239 156 208 244 217 194 127 110 190 145 130 150 152 138 121 103 130 137 129 185 272 342 102 191 214 178 170 181 177 156 177 212 230 249 255 237 180 228 179 138 136 155 150 147 152 159 159 151 144 141
337 337 337 338 339 343 348 351 354 355 354 353 352 340 323 323 338 351 214 220 236 255 265 280 295 305 320 337 327 262 224 219 261 253 213 193 306 290 193 215 273 245 163 127 149 169 155 157 158 139 155 170 133 113 100 129 191 224 188 127 244 249 183 131 123 166 201 200 226 293 343 342 2 16 11 74 102 121 140 143 146 149 150 148 143 142 143
336 336 335 336 338 341 345 348 350 350 350 350 347 335 327 328 334 259 198 215 287 296 278 295 323 346 327 328 343 3 5 275 240 249 236 213 212 313 291 257 235 310 311 254 177 130 113 153 149 103 128 178 145 129 138 190 211 180 133 29 295 272 130 87 80 112 140 296 315 345 359 341 26 66 58 52 57 80 118 134 141 134 127 133 136 137 140
334 334 334 334 336 339 343 345 345 346 346 345 343 339 334 331 341 316 230 244 337 69 326 315 296 316 339 338 344 4 8 21 59 63 320 228 189 199 254 256 183 140 275 271 98 87 83 105 122 112 136 167 166 156 159 176 194 163 131 183 244 209 118 95 76 96 136 239 277 7 34 5 9 54 94 104 95 88 90 107 118 116 116 125 132 135 140
332 333 333 334 335 337 340 341 341 342 342 338 337 337 333 324 332 323 276 261 264 104 35 298 272 314 344 349 345 344 354 16 46 60 55 40 25 218 225 238 25 56 64 71 83 101 111 104 98 111 139 146 129 144 167 172 154 112 118 203 215 142 101 133 117 79 68 252 219 118 70 19 5 27 73 115 122 115 110 112 118 120 121 124 129 134 136
330 330 331 331 333 334 336 337 338 339 337 333 333 333 326 282 80 35 28 16 6 358 343 286 265 315 332 327 326 339 349 6 23 40 53 48 42 46 55 75 73 40 45 52 54 80 85 72 75 120 176 180 79 96 151 155 109 99 94 263 205 106 115 146 119 102 204 222 189 164 145 124 223 169 131 124 123 119 119 123 128 130 133 134 133 133 135
328 329 329 330 331 333 333 333 335 338 335 329 330 329 303 180 130 75 57 38 28 204 232 257 270 311 325 312 320 332 336 348 9 30 42 37 38 43 45 59 77 55 56 68 47 53 72 75 99 141 175 120 81 60 31 56 71 89 208 274 161 156 179 177 150 161 221 207 169 156 134 111 158 166 144 135 130 124 127 136 138 137 139 140 138 138 140
326 327 329 330 331 330 329 329 333 338 336 330 330 333 225 183 190 199 32 16 13 22 202 296 315 312 307 296 306 315 321 337 360 23 28 22 25 32 34 51 77 80 99 103 86 83 91 119 157 193 342 103 120 96 20 68 78 224 231 242 251 220 198 181 156 151 210 183 157 152 134 129 150 153 142 139 135 127 128 134 136 137 139 139 139 142 144
325 327 330 330 329 326 324 326 330 335 334 330 333 347 326 219 243 240 259 331 349 357 131 43 327 297 291 290 292 299 309 326 346 5 14 15 12 7 13 41 75 80 77 71 79 109 115 350 12 330 329 49 110 120 117 109 151 258 259 284 294 250 163 157 151 144 151 144 135 129 120 122 126 124 121 129 133 129 129 134 136 136 137 137 137 138 141
324 327 328 327 325 322 320 320 324 329 328 325 332 28 78 147 260 279 301 322 333 345 120 157 289 300 315 307 271 288 304 318 347 351 356 7 355 343 16 43 49 51 61 54 44 100 98 25 16 350 335 26 84 113 136 111 124 270 292 334 311 192 140 109 97 126 128 115 98 83 86 107 115 109 110 127 133 128 127 130 133 133 134 134 135 137 140
325 327 327 325 322 319 315 312 315 317 312 302 281 258 261 276 295 306 314 321 322 329 125 346 321 335 326 302 294 302 307 337 42 12 354 2 355 352 19 38 28 27 78 88 65 44 84 124 80 2 344 24 75 93 94 103 156 237 280 331 311 197 143 118 106 114 125 124 111 95 88 124 149 143 139 147 142 129 126 129 133 132 130 127 127 130 134
325 326 326 322 318 316 310 304 306 305 297 288 279 274 275 286 302 315 328 330 316 201 137 86 328 280 277 288 304 316 331 8 8 8 360 332 350 18 13 11 18 23 47 75 83 8 88 111 89 21 348 16 79 90 75 139 211 244 290 329 295 168 126 119 120 128 136 133 124 133 154 170 169 141 130 131 132 130 131 132 131 129 127 124 123 126 128
325 326 324 320 314 310 304 300 298 294 285 278 276 276 286 336 332 329 331 327 316 303 74 87 123 278 300 334 324 322 8 43 347 8 349 306 333 72 9 336 12 41 31 46 74 44 26 61 79 46 345 358 55 77 320 256 250 264 351 34 86 102 96 90 94 116 123 88 72 112 135 134 122 115 118 120 127 132 133 132 133 133 132 131 131 130 130
326 325 322 316 310 303 299 299 296 281 264 262 268 265 268 298 309 313 311 302 304 53 343 10 116 290 329 359 319 305 6 49 332 218 259 313 340 65 76 358 26 41 13 46 65 46 23 69 108 87 356 356 42 101 234 233 225 200 132 127 131 122 117 117 114 101 96 96 98 106 115 120 123 127 128 129 133 135 133 135 139 138 133 132 136 136 134
327 326 321 314 307 297 294 302 307 247 249 286 293 289 287 291 299 305 294 240 190 185 252 6 67 199 180 180 282 294 354 27 317 303 353 348 350 27 69 72 54 360 18 51 47 22 17 86 103 55 354 353 183 234 231 195 178 181 177 174 171 150 134 144 147 128 100 105 116 120 124 129 133 135 135 136 138 139 139 141 141 138 135 136 140 138 136
329 326 322 317 310 307 311 5 98 24 311 306 303 301 299 296 298 307 300 199 196 201 148 108 231 231 184 186 258 295 350 319 302 337 353 348 326 350 37 63 56 321 19 29 11 358 9 41 80 77 298 236 226 251 244 190 175 181 178 175 174 140 116 129 132 119 107 108 120 125 128 131 136 138 136 136 140 143 144 144 144 142 141 141 143 143 143
334 330 332 345 1 12 55 41 323 317 312 309 308 305 302 317 23 329 348 113 201 243 86 127 231 241 154 178 253 282 296 289 347 9 318 253 237 4 31 57 108 76 41 328 280 334 39 22 49 79 258 264 273 278 247 184 176 178 162 162 168 148 135 139 134 125 121 124 134 141 140 141 149 151 142 140 143 143 140 139 137 136 137 141 145 145 145
353 353 354 7 17 239 256 308 318 316 311 310 322 311 302 31 65 280 281 360 180 286 10 192 224 205 161 198 266 282 229 75 37 16 249 241 283 287 34 29 289 77 67 290 274 30 54 360 355 9 303 291 303 299 212 145 148 166 155 155 162 153 147 151 151 146 147 153 162 162 156 152 155 154 145 140 138 133 133 134 134 138 143 146 145 145 148
8 7 1 1 332 305 308 318 324 323 322 358 40 39 16 24 148 216 223 44 352 253 220 199 217 204 167 177 247 272 226 129 131 221 200 188 235 173 94 77 266 81 73 278 276 59 84 360 338 358 290 266 259 241 195 151 156 171 161 150 155 158 155 153 153 149 145 144 148 151 148 145 146 146 145 142 137 134 138 140 141 144 146 145 148 153 158
358 356 332 309 308 307 313 323 334 354 59 39 13 29 55 293 274 259 92 82 275 263 242 164 203 274 237 157 173 228 245 183 155 141 120 98 309 76 84 272 283 72 85 254 260 75 84 77 336 291 251 239 220 189 173 172 180 179 164 157 157 153 143 135 133 136 135 132 133 141 143 141 140 141 143 141 136 137 142 142 144 149 150 153 159 163 163
317 299 284 290 298 301 309 325 345 33 66 49 15 313 293 252 259 301 59 196 226 259 274 209 188 228 238 178 166 197 223 188 100 85 84 291 259 105 97 324 13 64 226 247 268 61 63 29 293 269 252 233 201 172 167 179 188 180 170 167 160 151 145 139 139 147 148 143 138 140 143 141 141 144 146 142 139 142 146 146 150 156 160 163 166 165 162
316 291 271 280 293 296 302 317 324 64 65 60 62 332 320 311 304 303 281 274 268 280 287 289 289 285 291 289 150 196 227 102 75 81 93 180 281 67 66 36 32 187 239 275 59 65 84 222 231 249 250 221 187 178 177 181 181 173 172 174 167 162 159 154 151 157 159 152 148 149 150 147 146 150 151 147 143 143 150 155 161 166 167 166 165 163 162
334 305 187 266 299 300 272 290 308 111 129 261 151 150 226 286 300 304 268 282 297 304 289 306 5 344 308 293 181 281 277 291 68 74 92 289 15 66 77 252 245 234 268 25 57 157 237 229 230 248 256 216 189 186 183 177 168 161 171 183 173 164 161 156 150 150 154 152 150 149 150 149 148 149 152 152 150 150 155 162 166 169 168 165 163 163 165
350 34 41 355 330 327 147 304 328 212 194 213 187 167 179 209 223 227 229 220 218 295 314 331 76 28 294 284 292 360 255 101 72 64 152 84 55 61 196 231 248 55 55 27 351 298 271 263 262 258 230 203 193 187 181 180 173 162 162 172 173 166 162 157 153 151 152 153 152 150 149 149 148 149 154 158 158 158 161 166 169 169 168 165 163 165 167
360 360 71 73 302 278 189 108 324 304 210 203 195 184 178 210 222 230 245 249 288 315 310 296 238 256 278 272 257 318 360 82 99 213 126 93 96 236 230 192 64 49 46 6 303 267 243 247 255 242 216 201 191 181 179 181 175 163 160 166 177 179 172 165 162 162 162 161 159 155 154 153 153 154 158 162 163 164 167 170 173 172 170 167 166 168 171
302 290 81 94 286 291 143 174 212 225 262 295 205 214 249 266 252 252 280 291 296 310 310 298 266 259 262 243 177 238 296 69 95 218 99 97 132 268 358 47 77 186 146 202 248 249 243 249 257 238 212 193 178 177 181 178 173 174 172 169 173 178 177 172 168 165 164 163 162 160 160 161 160 159 159 162 167 170 171 173 175 175 174 173 173 173 174
351 323 125 141 230 228 219 238 267 297 344 352 295 265 274 311 342 327 306 290 302 320 312 300 300 291 271 235 128 183 259 47 92 209 204 91 106 355 21 29 298 264 189 195 218 231 236 246 251 231 200 179 172 179 183 179 179 181 177 172 175 180 181 180 176 172 169 167 165 166 168 168 166 164 163 166 173 177 176 176 178 179 178 177 176 176 177
226 281 216 202 239 240 235 248 342 330 313 313 310 309 335 4 346 316 304 309 321 312 282 242 178 164 241 257 91 112 223 180 123 145 41 63 106 158 109 120 261 277 250 218 218 229 238 243 238 200 178 174 177 184 186 183 182 183 182 181 182 181 179 182 184 179 175 172 172 174 176 175 173 172 171 171 177 183 182 180 180 182 182 180 178 178 181
208 216 226 200 230 282 291 354 21 336 321 336 342 337 352 352 325 310 328 338 322 312 300 168 131 140 223 43 64 65 253 227 140 116 99 161 176 155 117 165 217 231 233 224 221 230 237 233 198 173 183 186 184 187 189 185 184 187 189 187 183 180 181 187 187 183 180 183 183 182 180 179 180 181 183 184 187 189 188 186 185 186 186 184 181 181 184
262 277 260 222 196 219 265 13 8 284 299 321 312 304 334 341 307 300 328 342 336 343 356 346 242 76 69 74 98 170 232 195 107 117 173 211 174 139 151 216 226 225 229 239 242 242 242 227 189 180 191 194 191 193 194 190 187 187 188 187 185 184 185 188 188 185 185 188 190 188 187 189 191 193 196 197 194 189 187 191 193 192 190 188 188 188 190
223 232 281 285 230 179 171 148 241 244 253 266 263 273 319 308 276 285 322 347 355 358 337 290 278 71 91 188 201 170 124 74 79 128 208 231 189 158 181 214 225 215 216 241 258 257 246 230 208 196 197 198 197 195 192 187 185 184 184 185 186 185 185 188 190 189 187 187 189 191 193 197 198 197 196 194 189 184 185 195 198 197 194 193 194 196 198